Content
SEND FEEDBACK

Daily
Averages
Monthly
Summary
United States of America

INARAJAN, GUAM


Home > North America > United States > Guam
Elevation: 85 meters     Latitude: 13 18N     Longitude: 144 44E

WEATHER
 
SELECT A DAY
Number of Records: 342,273;   Date Range: 1/1/95 - 8/30/14
 
SHARE

PRINT THIS DATA

[ ← Previous Day ]
WEATHER ALMANAC - 27 JANUARY, 2013
[ Next Day → ]
[ °F ]   °C
Weather ElementAverageHighLow
Temperature25.4 °C27.9 °C (1:55 pm)24 °C (4:40 am)
Dewpoint18.6 °C20 °C (3:12 pm)17.4 °C (8:55 am)
Humidity65.7 %73 % (3:55 am)55 % (1:55 pm)
Barometer1012.2 hPa1014.2 hPa (8:55 am)1010.5 hPa (3:55 pm)
Wind Speed28.5 km/h33.3 km/h (2:55 pm)
Wind Gust38.9 km/h (7:55 pm)
Weather ElementAverage
Visibility16.1 km
Wind DirectionNE (46.2 °)

Weather ElementTotal
Precipitation---
Cooling Degree Days7.6 (Base 18.3)
Growing Degree Days15.9 (Base 10)
Averaged from 29 records on 27 January, 2013
WEATHER CONDITIONS BREAKOUT
WIND DIRECTION BREAKOUT
WEATHER BY HOUR - 27 JANUARY, 2013
[ °F ]   °C
Local TimeTemperatureDewpointHumidityBarometerVisibilityWind DirectionWind SpeedGust SpeedPrecipitationEventsConditions
1:55 AM24.5 °C18.8 °C70 %1011.9 hPa16.1 kmNE (50°)24.1 km/hMostly Cloudy
2:55 AM24.2 °C18.4 °C70 %1011.9 hPa16.1 kmNE (50°)24.1 km/hPartly Cloudy
3:55 AM24.2 °C19 °C73 %1011.5 hPa16.1 kmNE (50°)24.1 km/hScattered Clouds
4:14 AM25 °C19 °C69 %1011.5 hPa16.1 kmNE (40°)25.9 km/hMostly Cloudy
4:40 AM24 °C19 °C73 %1011.9 hPa16.1 kmNE (50°)25.9 km/hMostly Cloudy
4:55 AM24.1 °C18.3 °C70 %1012.2 hPa16.1 kmNE (50°)25.9 km/hPartly Cloudy
5:30 AM24 °C19 °C73 %1012.2 hPa16.1 kmNNE (30°)25.9 km/hMostly Cloudy
5:37 AM24 °C19 °C73 %1012.2 hPa16.1 kmNE (40°)25.9 km/h37 km/hMostly Cloudy
5:55 AM24.4 °C18.5 °C70 %1012.5 hPa16.1 kmNE (40°)29.6 km/hMostly Cloudy
6:55 AM24.2 °C17.5 °C66 %1012.9 hPa16.1 kmNE (40°)29.6 km/hMostly Cloudy
7:55 AM25.3 °C17.9 °C63 %1013.9 hPa16.1 kmNE (50°)25.9 km/hMostly Cloudy
8:55 AM26.1 °C17.4 °C59 %1014.2 hPa16.1 kmNE (50°)25.9 km/hScattered Clouds
9:55 AM26.9 °C17.5 °C56 %1013.9 hPa16.1 kmNE (40°)27.8 km/hPartly Cloudy
10:55 AM26.9 °C18.5 °C60 %1013.5 hPa16.1 kmNE (40°)31.5 km/hMostly Cloudy
11:55 AM27.5 °C18.3 °C57 %1012.9 hPa16.1 kmNE (40°)31.5 km/hPartly Cloudy
12:55 PM27.4 °C18.5 °C58 %1012.2 hPa16.1 kmNE (40°)31.5 km/hPartly Cloudy
1:55 PM27.9 °C18.2 °C55 %1011.2 hPa16.1 kmNE (50°)31.5 km/hPartly Cloudy
2:55 PM27.4 °C19.3 °C61 %1010.8 hPa16.1 kmNE (40°)33.3 km/hScattered Clouds
3:12 PM27 °C20 °C65 %1010.8 hPa16.1 kmNE (40°)31.5 km/hMostly Cloudy
3:15 PM27 °C19 °C61 %1010.8 hPa16.1 kmNE (40°)33.3 km/hScattered Clouds
3:55 PM26.9 °C19 °C62 %1010.5 hPa16.1 kmNE (50°)29.6 km/hScattered Clouds
4:55 PM26 °C18.9 °C65 %1010.8 hPa16.1 kmNE (50°)31.5 km/hPartly Cloudy
5:55 PM25.5 °C19 °C67 %1011.2 hPa16.1 kmNE (50°)29.6 km/hMostly Cloudy
6:55 PM24.9 °C18.5 °C67 %1011.9 hPa16.1 kmNE (50°)29.6 km/hScattered Clouds
7:55 PM24.8 °C17.7 °C65 %1012.2 hPa16.1 kmENE (60°)27.8 km/h38.9 km/hPartly Cloudy
8:55 PM24.9 °C18.4 °C67 %1012.9 hPa16.1 kmNE (50°)29.6 km/hPartly Cloudy
9:55 PM24.6 °C18.7 °C70 %1012.9 hPa16.1 kmENE (60°)29.6 km/hClear
10:55 PM24.6 °C18.4 °C68 %1012.9 hPa16.1 kmNE (50°)31.5 km/hPartly Cloudy
11:55 PM24.5 °C18.9 °C71 %1012.2 hPa16.1 kmNE (50°)24.1 km/hPartly Cloudy
Hourly data recorded from PGUA, located 0 kilometers away from Inarajan, Guam







STORIES FROM OUR PARTNERS